Meteo pe oră la Dzielnik

Astăzi, 26 Februarie, Vineri

Timp Temperatura Precipitaţii Vânt Presiune Umiditate
00:00 +7°C° 0 mm 3 m/s 754 mmHg 86%
01:00 +7°C° 0 mm 3 m/s 754 mmHg 87%
02:00 +5°C° 0 mm 3 m/s 754 mmHg 89%
03:00 +5°C° 0 mm 3 m/s 753 mmHg 90%
04:00 +5°C° 0 mm 3 m/s 753 mmHg 92%
05:00 +4°C° 0 mm 3 m/s 753 mmHg 93%
06:00 +4°C° 0 mm 3 m/s 753 mmHg 95%
07:00 +4°C° 0 mm 3 m/s 753 mmHg 95%
08:00 +5°C° 0 mm 3 m/s 753 mmHg 91%
09:00 +7°C° 0 mm 3 m/s 753 mmHg 87%
10:00 +8°C° 0 mm 4 m/s 753 mmHg 83%
11:00 +7°C° 0.1 mm 4 m/s 753 mmHg 82%
12:00 +7°C° 0.1 mm 4 m/s 753 mmHg 82%
13:00 +7°C° 0.1 mm 4 m/s 753 mmHg 81%
14:00 +6°C° 0.8 mm 4 m/s 753 mmHg 83%
15:00 +5°C° 0.8 mm 4 m/s 752 mmHg 85%
16:00 +4°C° 0.8 mm 3 m/s 752 mmHg 88%
17:00 +4°C° 0 mm 4 m/s 752 mmHg 86%
18:00 +4°C° 0 mm 4 m/s 752 mmHg 85%
19:00 +3°C° 0 mm 5 m/s 752 mmHg 84%
20:00 +2°C° 0 mm 5 m/s 752 mmHg 83%
21:00 +2°C° 0 mm 5 m/s 753 mmHg 83%
22:00 +2°C° 0 mm 5 m/s 753 mmHg 83%
23:00 +2°C° 0 mm 5 m/s 753 mmHg 83%

Mâine, 27 Februarie, Sâmbătă

Timp Temperatura Precipitaţii Vânt Presiune Umiditate
00:00 +2°C° 0 mm 5 m/s 753 mmHg 82%
01:00 +2°C° 0 mm 5 m/s 754 mmHg 82%
02:00 +2°C° 0 mm 5 m/s 753 mmHg 82%
03:00 +2°C° 0 mm 5 m/s 753 mmHg 83%
04:00 +2°C° 0 mm 5 m/s 753 mmHg 83%
05:00 +2°C° 0 mm 6 m/s 753 mmHg 84%
06:00 +1°C° 0 mm 6 m/s 753 mmHg 85%
07:00 +1°C° 0 mm 6 m/s 754 mmHg 87%
08:00 +1°C° 0 mm 6 m/s 754 mmHg 86%
09:00 +1°C° 0 mm 6 m/s 754 mmHg 85%
10:00 +2°C° 0 mm 6 m/s 754 mmHg 84%
11:00 +2°C° 0 mm 7 m/s 755 mmHg 80%
12:00 +3°C° 0 mm 7 m/s 755 mmHg 75%
13:00 +3°C° 0 mm 7 m/s 755 mmHg 71%
14:00 +3°C° 0 mm 7 m/s 755 mmHg 70%
15:00 +3°C° 0 mm 7 m/s 756 mmHg 68%
16:00 +4°C° 0 mm 6 m/s 756 mmHg 67%
17:00 +3°C° 0 mm 6 m/s 756 mmHg 71%
18:00 +2°C° 0 mm 6 m/s 757 mmHg 76%
19:00 +1°C° 0 mm 5 m/s 757 mmHg 80%
20:00 0°C° 0 mm 5 m/s 757 mmHg 84%
21:00 -1°C° 0 mm 5 m/s 757 mmHg 87%
22:00 -1°C° 0 mm 5 m/s 758 mmHg 90%
23:00 -2°C° 0 mm 4 m/s 758 mmHg 91%

Poimâine, 28 Februarie, Duminică

Timp Temperatura Precipitaţii Vânt Presiune Umiditate
00:00 -2°C° 0 mm 4 m/s 759 mmHg 93%
01:00 -2°C° 0 mm 4 m/s 759 mmHg 94%
02:00 -2°C° 0 mm 4 m/s 759 mmHg 94%
03:00 -2°C° 0 mm 4 m/s 759 mmHg 94%
04:00 -2°C° 0 mm 4 m/s 758 mmHg 94%
05:00 -1°C° 0 mm 3 m/s 759 mmHg 93%
06:00 -1°C° 0 mm 3 m/s 759 mmHg 92%
07:00 -1°C° 0 mm 3 m/s 759 mmHg 91%
08:00 0°C° 0 mm 3 m/s 759 mmHg 84%
09:00 0°C° 0 mm 4 m/s 759 mmHg 77%
10:00 +3°C° 0 mm 4 m/s 759 mmHg 69%
11:00 +4°C° 0 mm 4 m/s 759 mmHg 66%
12:00 +5°C° 0 mm 4 m/s 759 mmHg 63%
13:00 +6°C° 0 mm 5 m/s 759 mmHg 59%
14:00 +6°C° 0 mm 4 m/s 758 mmHg 61%
15:00 +5°C° 0 mm 4 m/s 758 mmHg 62%
16:00 +5°C° 0 mm 4 m/s 758 mmHg 63%
17:00 +4°C° 0 mm 4 m/s 758 mmHg 70%
18:00 +3°C° 0 mm 4 m/s 758 mmHg 77%
19:00 +1°C° 0 mm 4 m/s 758 mmHg 84%
20:00 +1°C° 0 mm 4 m/s 758 mmHg 86%
21:00 +1°C° 0 mm 4 m/s 758 mmHg 88%
22:00 +3°C° 0 mm 4 m/s 758 mmHg 90%
23:00 +1°C° 0 mm 4 m/s 758 mmHg 91%

1 Martie, Luni

Timp Temperatura Precipitaţii Vânt Presiune Umiditate
00:00 0°C° 0 mm 4 m/s 759 mmHg 93%
01:00 0°C° 0 mm 4 m/s 759 mmHg 94%
02:00 -1°C° 0 mm 4 m/s 759 mmHg 95%
03:00 0°C° 0 mm 3 m/s 759 mmHg 95%
04:00 -1°C° 0 mm 3 m/s 759 mmHg 95%
05:00 -1°C° 0 mm 3 m/s 759 mmHg 96%
06:00 -1°C° 0 mm 2 m/s 760 mmHg 96%
07:00 -1°C° 0 mm 2 m/s 760 mmHg 96%
08:00 +1°C° 0 mm 2 m/s 761 mmHg 91%
09:00 +3°C° 0 mm 2 m/s 761 mmHg 85%
10:00 +5°C° 0 mm 1 m/s 761 mmHg 79%
11:00 +6°C° 0 mm 1 m/s 761 mmHg 75%
12:00 +7°C° 0 mm 1 m/s 762 mmHg 72%
13:00 +7°C° 0 mm 2 m/s 762 mmHg 68%
14:00 +7°C° 0 mm 2 m/s 762 mmHg 68%
15:00 +8°C° 0 mm 1 m/s 762 mmHg 69%
16:00 +8°C° 0 mm 1 m/s 761 mmHg 70%
17:00 +7°C° 0 mm 1 m/s 762 mmHg 75%
18:00 +6°C° 0 mm 1 m/s 762 mmHg 80%
19:00 +5°C° 0 mm 1 m/s 762 mmHg 85%
20:00 +5°C° 0 mm 1 m/s 762 mmHg 86%
21:00 +4°C° 0 mm 1 m/s 762 mmHg 87%
22:00 +3°C° 0 mm 2 m/s 763 mmHg 89%
23:00 +2°C° 0 mm 2 m/s 763 mmHg 90%

2 Martie, Marţi

Timp Temperatura Precipitaţii Vânt Presiune Umiditate
00:00 +2°C° 0 mm 2 m/s 763 mmHg 90%
01:00 +2°C° 0 mm 2 m/s 763 mmHg 91%
02:00 +2°C° 0 mm 2 m/s 763 mmHg 91%
03:00 +1°C° 0 mm 2 m/s 763 mmHg 92%
04:00 +1°C° 0 mm 2 m/s 762 mmHg 92%
05:00 +1°C° 0 mm 2 m/s 762 mmHg 92%
06:00 +1°C° 0 mm 2 m/s 762 mmHg 93%
07:00 +1°C° 0 mm 2 m/s 762 mmHg 93%
08:00 +3°C° 0 mm 2 m/s 762 mmHg 87%
09:00 +4°C° 0 mm 2 m/s 762 mmHg 81%
10:00 +6°C° 0 mm 2 m/s 762 mmHg 75%
11:00 +7°C° 0 mm 2 m/s 762 mmHg 70%
12:00 +8°C° 0 mm 2 m/s 762 mmHg 66%
13:00 +9°C° 0 mm 2 m/s 762 mmHg 61%
14:00 +9°C° 0 mm 2 m/s 761 mmHg 61%
15:00 +9°C° 0 mm 2 m/s 761 mmHg 62%
16:00 +9°C° 0 mm 2 m/s 760 mmHg 62%
17:00 +8°C° 0 mm 2 m/s 760 mmHg 65%
18:00 +6°C° 0 mm 2 m/s 760 mmHg 68%
19:00 +5°C° 0 mm 2 m/s 760 mmHg 71%
20:00 +4°C° 0 mm 2 m/s 760 mmHg 72%
21:00 +4°C° 0 mm 2 m/s 760 mmHg 73%
22:00 +3°C° 0 mm 2 m/s 759 mmHg 73%
23:00 +3°C° 0 mm 2 m/s 759 mmHg 75%

3 Martie, Miercuri

Timp Temperatura Precipitaţii Vânt Presiune Umiditate
00:00 +3°C° 0 mm 2 m/s 759 mmHg 76%
01:00 +2°C° 0 mm 2 m/s 759 mmHg 77%
02:00 +1°C° 0 mm 3 m/s 758 mmHg 78%
03:00 +1°C° 0 mm 3 m/s 758 mmHg 79%
04:00 0°C° 0 mm 3 m/s 758 mmHg 81%
05:00 0°C° 0 mm 3 m/s 758 mmHg 82%
06:00 0°C° 0 mm 3 m/s 757 mmHg 83%
07:00 0°C° 0 mm 3 m/s 757 mmHg 84%
08:00 +2°C° 0 mm 3 m/s 757 mmHg 79%
09:00 +3°C° 0 mm 3 m/s 757 mmHg 73%
10:00 +5°C° 0 mm 4 m/s 757 mmHg 67%
11:00 +6°C° 0 mm 4 m/s 757 mmHg 64%
12:00 +7°C° 0 mm 4 m/s 756 mmHg 61%
13:00 +8°C° 0 mm 4 m/s 756 mmHg 58%
14:00 +9°C° 0 mm 3 m/s 756 mmHg 59%
15:00 +9°C° 0 mm 3 m/s 756 mmHg 60%
16:00 +9°C° 0 mm 3 m/s 755 mmHg 62%
17:00 +8°C° 0 mm 3 m/s 755 mmHg 68%
18:00 +7°C° 0 mm 3 m/s 755 mmHg 74%
19:00 +4°C° 0 mm 3 m/s 755 mmHg 80%
20:00 +5°C° 0 mm 2 m/s 755 mmHg 82%
21:00 +5°C° 0 mm 2 m/s 755 mmHg 85%
22:00 +4°C° 0 mm 2 m/s 755 mmHg 87%
23:00 +4°C° 0 mm 2 m/s 755 mmHg 88%
Arată mai mult

Formular de consimțământ

Meteoprog și furnizorii noștri de servicii pot stoca și accesa date personale, precum cookies, identificatori de dispozitiv sau alte tehnologii similare pe dispozitivul dumneavoastră și procesa astfel de date pentru a personaliza conținutul și reclamele, dar și pentru a oferi caracteristici de social media și pentru a analiza traficul.

  • Stocarea și/sau accesarea informațiilor pe dispozitivul dumneavoastră

    Cookies, identificatori de dispozitiv sau alte informații pot fi stocate sau accesate pe dispozitiv în scopurile indicate mai sus.

  • Reclame și conținut personalizat, evaluarea reclamelor și a conținutului, informații despre audiențe și dezvoltarea produselor

    Reclamele și conținutul pot fi personalizate pe baza unui profil. Pot fi adăugate date suplimentare pentru a personaliza mai bine reclamele și conținutul. Performanța reclamelor și conținutului poate fi măsurată. Pot fi obținute informații despre utilizatorii care au văzut reclamele și conținutul. Aceste date pot fi utilizate pentru a dezvolta sau îmbunătăți experiența utilizatorilor, sistemele și software-ul.

Dând clic pe ‘Sunt de acord’, permiteți utilizarea cookie-urilor menționate, a identificatorilor de dispozitiv, balizelor web sau altor tehnologii similare. Setările pot fi modificate din browser-ul dispozitivului dumneavoastră.

În anumite scopuri, interesele legitime pot prima asupra consimțământului. Puteți citi mai multe informații în acest sens în Politica privind Confidențialitatea Datelor și Cookie.